DW2070 Weather Reports


Display with metric or nautical units.
time (UTC)temp
F
wind
direction
speed
MPH
gust
MPH
rain 1hr
in
rain 24hr
in
rain mn
in
humidity
%
barometer
mb
20260509222004 74 246 5.0 12.0 0.00 0.00 0.00 63 1012.8
20260509220004 73 245 6.0 12.0 0.00 0.00 0.00 66 1013.0
20260509215004 73 250 5.0 14.0 0.00 0.00 0.00 65 1013.1
20260509214004 74 265 5.0 13.0 0.00 0.00 0.00 64 1013.2
20260509213004 73 258 5.0 13.0 0.00 0.00 0.00 66 1013.1
20260509212004 73 232 5.0 12.0 0.00 0.00 0.00 65 1013.2
20260509211004 72 245 6.0 13.0 0.00 0.00 0.00 68 1013.3
20260509210004 73 250 5.0 12.0 0.00 0.00 0.00 66 1013.4
20260509205004 72 248 5.0 12.0 0.00 0.00 0.00 66 1013.5
20260509204004 72 242 4.0 15.0 0.00 0.00 0.00 67 1013.6
20260509203004 72 259 4.0 10.0 0.00 0.00 0.00 68 1013.5
20260509202004 71 241 4.0 10.0 0.00 0.00 0.00 68 1013.8
20260509200004 71 248 5.0 11.0 0.00 0.00 0.00 70 1013.8
20260509195025 70 252 5.0 13.0 0.00 0.00 0.00 71 1013.9
20260509194004 71 253 3.0 11.0 0.00 0.00 0.00 70 1014.1
20260509193004 70 265 4.0 9.0 0.00 0.00 0.00 71 1014.0
20260509192004 71 275 4.0 12.0 0.00 0.00 0.00 70 1014.2
20260509191004 70 259 3.0 10.0 0.00 0.00 0.00 71 1014.4
20260509190004 70 259 3.0 9.0 0.00 0.00 0.00 72 1014.4
20260509185004 69 251 3.0 8.0 0.00 0.00 0.00 74 1014.4
20260509184004 68 279 3.0 8.0 0.00 0.00 0.00 75 1014.6
20260509182004 67 253 3.0 6.0 0.00 0.00 0.00 75 1014.7
20260509181004 66 236 2.0 7.0 0.00 0.00 0.00 79 1014.7
20260509180004 64 236 2.0 8.0 0.00 0.00 0.00 79 1014.9
20260509175004 64 224 2.0 5.0 0.00 0.00 0.00 80 1014.8
20260509174004 64 238 1.0 5.0 0.00 0.00 0.00 81 1014.8
20260509173004 63 236 2.0 4.0 0.00 0.00 0.00 81 1014.8
20260509172003 63 233 1.0 4.0 0.00 0.00 0.00 81 1014.9
20260509171003 62 233 1.0 3.0 0.00 0.00 0.00 83 1014.8
20260509170003 62 234 1.0 4.0 0.00 0.00 0.00 83 1014.7
20260509165003 61 222 1.0 3.0 0.00 0.00 0.00 85 1014.7
20260509164003 60 222 1.0 3.0 0.00 0.00 0.00 86 1014.7
20260509163004 60 221 2.0 4.0 0.00 0.00 0.00 87 1014.7
20260509162004 59 222 2.0 3.0 0.00 0.00 0.00 88 1014.8
20260509161003 59 179 0.0 5.0 0.00 0.00 0.00 89 1014.7
20260509160003 59 0 0.0 0.0 0.00 0.00 0.00 89 1014.7
20260509155003 58 0 0.0 0.0 0.00 0.00 0.00 90 1014.8
20260509154025 58 75 0.0 1.0 0.00 0.00 0.00 90 1014.8
20260509153004 58 75 1.0 4.0 0.00 0.00 0.00 90 1014.7
20260509152003 58 56 1.0 3.0 0.00 0.00 0.00 90 1014.7
20260509151024 58 51 0.0 3.0 0.00 0.00 0.00 90 1014.8
20260509150024 58 46 1.0 3.0 0.00 0.00 0.00 91 1014.7
20260509144003 57 46 1.0 3.0 0.00 0.00 0.00 91 1014.7
20260509143003 57 46 1.0 2.0 0.00 0.00 0.00 91 1014.7
20260509142003 57 46 1.0 3.0 0.00 0.00 0.00 91 1014.7
20260509141004 57 46 2.0 3.0 0.00 0.00 0.00 91 1014.6
20260509140005 57 9 2.0 5.0 0.00 0.00 0.00 91 1014.6
20260509135003 57 235 2.0 4.0 0.00 0.00 0.00 91 1014.6
20260509134003 57 234 2.0 4.0 0.00 0.00 0.00 91 1014.4
20260509133004 57 235 1.0 3.0 0.00 0.00 0.00 91 1014.4
20260509132004 57 236 1.0 3.0 0.00 0.00 0.00 90 1014.2
20260509131003 57 237 1.0 3.0 0.00 0.00 0.00 90 1014.1
20260509130003 57 237 2.0 3.0 0.00 0.00 0.00 90 1014.1
20260509125003 57 238 1.0 3.0 0.00 0.00 0.00 90 1014.0
20260509124003 57 240 1.0 3.0 0.00 0.00 0.00 90 1014.0
20260509123003 57 241 2.0 4.0 0.00 0.00 0.00 90 1013.9
20260509122003 57 241 1.0 3.0 0.00 0.00 0.00 90 1013.9
20260509121024 57 237 1.0 3.0 0.00 0.00 0.00 90 1013.8
20260509120003 57 238 0.0 3.0 0.00 0.00 0.00 90 1013.8
20260509115003 57 0 0.0 0.0 0.00 0.00 0.00 90 1013.9
20260509114024 57 0 0.0 0.0 0.00 0.00 0.00 90 1013.9
20260509113003 57 0 0.0 0.0 0.00 0.00 0.00 90 1013.9
20260509112003 57 0 0.0 0.0 0.00 0.00 0.00 90 1013.8
20260509111003 57 0 0.0 0.0 0.00 0.00 0.00 90 1013.9
20260509104003 57 0 0.0 0.0 0.00 0.00 0.00 90 1013.9
20260509103024 57 0 0.0 0.0 0.00 0.00 0.00 90 1014.0
20260509102003 57 0 0.0 0.0 0.00 0.00 0.00 90 1014.1
20260509101024 57 0 0.0 0.0 0.00 0.00 0.00 90 1014.0
20260509100004 57 0 0.0 0.0 0.00 0.00 0.00 89 1014.1
20260509095003 57 0 0.0 0.0 0.00 0.00 0.00 89 1014.0
20260509094003 57 0 0.0 0.0 0.00 0.00 0.00 89 1014.1
20260509093003 57 0 0.0 0.0 0.00 0.00 0.00 89 1014.2
20260509092024 57 0 0.0 0.0 0.00 0.00 0.00 89 1014.2
20260509091003 57 0 0.0 0.0 0.00 0.00 0.00 89 1014.2
20260509090003 57 0 0.0 0.0 0.00 0.00 0.00 89 1014.1
20260509085024 57 0 0.0 0.0 0.00 0.00 0.00 89 1014.3
20260509084003 57 0 0.0 0.0 0.00 0.00 0.00 89 1014.3
20260509083003 57 245 0.0 2.0 0.00 0.00 0.00 89 1014.4
20260509082004 57 245 1.0 3.0 0.00 0.00 0.00 89 1014.5
20260509081005 57 245 0.0 4.0 0.00 0.00 0.00 88 1014.6
20260509080005 57 0 4.0 4.0 0.00 0.00 0.00 88 1014.6
20260509075005 57 0 0.0 0.0 0.00 0.00 0.00 88 1014.6
20260509074005 57 242 1.0 3.0 0.00 0.00 0.00 88 1014.6
20260509073004 57 241 0.0 2.0 0.00 0.00 0.00 88 1014.7
20260509070005 57 241 1.0 3.0 0.00 0.00 0.00 88 1014.7
20260509065026 57 241 1.0 2.0 0.00 0.00 0.00 87 1014.7
20260509064005 57 241 1.0 4.0 0.00 0.00 0.00 87 1014.7
20260509063004 57 241 1.0 3.0 0.00 0.00 0.00 87 1014.8
20260509062026 57 240 1.0 5.0 0.00 0.00 0.00 86 1014.8
20260509055004 58 239 1.0 4.0 0.00 0.00 0.00 85 1014.7
20260509054004 58 239 1.0 3.0 0.00 0.00 0.00 85 1014.8
20260509053004 58 239 1.0 3.0 0.00 0.00 0.00 84 1014.8
20260509052004 58 239 1.0 3.0 0.00 0.00 0.00 84 1014.7
20260509051004 58 239 2.0 4.0 0.00 0.00 0.00 84 1014.6
20260509050004 59 237 1.0 4.0 0.00 0.00 0.00 83 1014.6
20260509045004 59 237 1.0 4.0 0.00 0.00 0.00 83 1014.6
20260509044025 59 237 1.0 3.0 0.00 0.00 0.00 82 1014.5
20260509043004 59 237 1.0 3.0 0.00 0.00 0.00 81 1014.4
20260509042004 60 237 1.0 3.0 0.00 0.00 0.00 81 1014.3
20260509041004 60 0 0.0 2.0 0.00 0.00 0.00 80 1014.3
20260509040004 60 0 0.0 1.0 0.00 0.00 0.00 79 1014.1
20260509035004 60 237 1.0 2.0 0.00 0.00 0.00 79 1014.1
20260509034004 61 237 1.0 3.0 0.00 0.00 0.00 79 1014.1
20260509032025 61 238 1.0 3.0 0.00 0.00 0.00 78 1014.1
20260509031005 62 238 2.0 4.0 0.00 0.00 0.00 78 1014.1
20260509030004 62 239 2.0 4.0 0.00 0.00 0.00 78 1014.0
20260509025025 62 238 2.0 5.0 0.00 0.00 0.00 77 1014.0
20260509024025 63 236 3.0 6.0 0.00 0.00 0.00 77 1013.9
20260509022025 64 230 2.0 5.0 0.00 0.00 0.00 76 1013.7
20260509021004 64 239 2.0 6.0 0.00 0.00 0.00 76 1013.6
20260509020025 64 256 2.0 8.0 0.00 0.00 0.00 75 1013.6
20260509015004 64 259 2.0 7.0 0.00 0.00 0.00 75 1013.7
20260509014004 65 221 3.0 6.0 0.00 0.00 0.00 75 1013.6
20260509013004 65 233 3.0 10.0 0.00 0.00 0.00 74 1013.8
20260509011004 65 250 3.0 8.0 0.00 0.00 0.00 74 1013.7
20260509010004 65 242 3.0 8.0 0.00 0.00 0.00 74 1013.8
20260509005004 65 247 4.0 7.0 0.00 0.00 0.00 74 1013.8
20260509004004 65 247 4.0 9.0 0.00 0.00 0.00 74 1013.9
20260509002004 66 252 4.0 10.0 0.00 0.00 0.00 72 1013.9
20260509001025 67 265 5.0 10.0 0.00 0.00 0.00 72 1013.9
20260509000004 67 251 5.0 12.0 0.00 0.00 0.00 71 1013.9
20260508235004 68 255 4.0 10.0 0.00 0.00 0.00 70 1013.9
20260508234004 68 244 5.0 11.0 0.00 0.00 0.00 69 1013.9
20260508233004 70 264 5.0 12.0 0.00 0.00 0.00 68 1014.0
20260508232004 70 255 6.0 11.0 0.00 0.00 0.00 69 1014.1
20260508231004 71 250 5.0 11.0 0.00 0.00 0.00 67 1014.2
20260508230004 72 259 5.0 11.0 0.00 0.00 0.00 65 1014.2
20260508225004 72 266 5.0 12.0 0.00 0.00 0.00 65 1014.4
20260508224004 72 239 5.0 14.0 0.00 0.00 0.00 64 1014.5
20260508223004 73 254 5.0 12.0 0.00 0.00 0.00 65 1014.6